Location: Grand Moustoir
(47.8355°N, 3.3120°W)
Time: 23:42:23
(UTC+00:00)

SMAP - Pass Details

Date: 20 January 2020
Orbit: 681 x 683 km, 98.1° (Epoch: 23 February)

Event Time Altitude Azimuth Distance (km) Brightness Sun altitude
Rises 06:42:55 0° 13° (NNE) 3,056 6.4 -11.8°
Reaches altitude 10° 06:45:10 10° 13° (NNE) 2,136 5.6 -11.4°
Maximum altitude 06:49:50 88° 291° (WNW) 689 3.1 -10.7°
Drops below altitude 10° 06:54:29 10° 196° (SSW) 2,118 5.6 -10.0°
Sets 06:56:43 0° 196° (SSW) 3,029 6.4 -9.6°
